Time,TemperatureF,DewpointF,PressureIn,WindDirection,WindDirectionDegrees,WindSpeedMPH,WindSpeedGustMPH,Humidity,HourlyPrecipIn,Conditions,Clouds,dailyrainin,SoftwareType,DateUTC
2013-07-30 09:43:00,83.0,78.0,30.12,NE,53,2.0,2.0,86,0.89,,,1.19,,2013-07-30 13:43:00,
2013-07-30 10:03:00,84.0,79.0,30.13,East,90,0.0,5.0,85,0.00,,,1.19,,2013-07-30 14:03:00,
2013-07-30 10:12:00,84.0,79.0,30.13,East,90,0.0,5.0,85,0.00,,,1.19,,2013-07-30 14:12:00,
2013-07-30 10:22:00,84.0,79.0,30.13,East,90,0.0,5.0,85,0.00,,,1.19,,2013-07-30 14:22:00,
2013-07-30 10:43:00,87.0,80.0,30.13,East,82,0.0,7.0,79,0.00,,,1.19,,2013-07-30 14:43:00,
2013-07-30 10:53:00,87.0,80.0,30.13,East,82,0.0,7.0,79,0.00,,,1.19,,2013-07-30 14:53:00,
2013-07-30 11:02:00,88.0,80.0,30.13,NE,51,2.0,4.0,78,0.00,,,1.19,,2013-07-30 15:02:00,
2013-07-30 11:23:00,88.0,79.0,30.13,ENE,70,0.0,3.0,76,0.00,,,1.19,,2013-07-30 15:23:00,
2013-07-30 11:33:00,89.0,81.0,30.14,ESE,119,0.0,5.0,77,0.00,,,1.19,,2013-07-30 15:33:00,
2013-07-30 11:43:00,89.0,79.0,30.13,SSW,209,0.0,5.0,72,0.00,,,1.19,,2013-07-30 15:43:00,
2013-07-30 11:52:00,89.0,79.0,30.14,ENE,58,0.0,2.0,73,0.00,,,1.19,,2013-07-30 15:52:00,
2013-07-30 12:02:00,89.0,80.0,30.13,ENE,73,0.0,3.0,74,0.00,,,1.19,,2013-07-30 16:02:00,
2013-07-30 12:23:00,89.0,79.0,30.13,South,171,0.0,4.0,73,0.00,,,1.19,,2013-07-30 16:23:00,
2013-07-30 12:33:00,89.0,79.0,30.13,South,171,0.0,4.0,73,0.00,,,1.19,,2013-07-30 16:33:00,
2013-07-30 12:44:00,89.0,80.0,30.12,ENE,70,0.0,3.0,75,0.00,,,1.19,,2013-07-30 16:44:00,
2013-07-30 12:52:00,90.0,79.0,30.12,ENE,70,0.0,1.0,70,0.00,,,1.19,,2013-07-30 16:52:00,
2013-07-30 13:02:00,91.0,79.0,30.12,ENE,78,0.0,3.0,69,0.00,,,1.19,,2013-07-30 17:02:00,
2013-07-30 13:22:00,91.0,78.0,30.11,NE,44,0.0,3.0,67,0.00,,,1.19,,2013-07-30 17:22:00,
2013-07-30 13:43:00,92.0,79.0,30.10,East,86,1.0,6.0,66,0.00,,,1.19,,2013-07-30 17:43:00,
2013-07-30 13:53:00,92.0,79.0,30.10,East,86,1.0,6.0,66,0.00,,,1.19,,2013-07-30 17:53:00,
2013-07-30 14:03:00,92.0,79.0,30.09,East,84,0.0,3.0,67,0.00,,,1.19,,2013-07-30 18:03:00,
2013-07-30 14:32:00,86.0,77.0,30.11,NE,34,1.0,4.0,74,0.00,,,1.19,,2013-07-30 18:32:00,
2013-07-30 14:52:00,83.0,76.0,30.11,SSE,159,1.0,6.0,79,0.00,,,1.19,,2013-07-30 18:52:00,
2013-07-30 15:03:00,83.0,76.0,30.11,SSE,159,1.0,6.0,79,0.00,,,1.19,,2013-07-30 19:03:00,
2013-07-30 15:12:00,83.0,76.0,30.11,SSE,159,1.0,6.0,79,0.00,,,1.19,,2013-07-30 19:12:00,
2013-07-30 15:44:00,83.0,76.0,30.11,WSW,242,0.0,2.0,80,0.00,,,0.89,,2013-07-30 19:44:00,
2013-07-30 15:52:00,83.0,76.0,30.11,WSW,242,0.0,2.0,80,0.00,,,0.89,,2013-07-30 19:52:00,
2013-07-30 16:02:00,84.0,77.0,30.09,NNE,31,0.0,4.0,80,0.00,,,0.55,,2013-07-30 20:02:00,
2013-07-30 16:12:00,85.0,78.0,30.09,NE,51,0.0,4.0,79,0.00,,,0.55,,2013-07-30 20:12:00,
2013-07-30 16:22:00,86.0,78.0,30.09,ENE,63,0.0,3.0,78,0.00,,,0.08,,2013-07-30 20:22:00,
2013-07-30 16:43:00,86.0,78.0,30.09,ENE,63,0.0,3.0,78,0.00,,,0.08,,2013-07-30 20:43:00,
2013-07-30 16:52:00,86.0,78.0,30.09,ENE,63,0.0,3.0,78,0.00,,,0.08,,2013-07-30 20:52:00,
2013-07-30 17:02:00,86.0,78.0,30.09,ENE,63,0.0,3.0,78,0.00,,,0.08,,2013-07-30 21:02:00,
2013-07-30 17:12:00,86.0,78.0,30.09,ENE,63,0.0,3.0,78,0.00,,,0.08,,2013-07-30 21:12:00,
2013-07-30 17:42:00,85.0,78.0,30.06,NW,311,0.0,3.0,80,0.00,,,0.00,,2013-07-30 21:42:00,
2013-07-30 17:53:00,85.0,78.0,30.06,ENE,78,0.0,0.0,81,0.00,,,0.00,,2013-07-30 21:53:00,
2013-07-30 18:02:00,85.0,78.0,30.06,East,97,0.0,1.0,81,0.00,,,0.00,,2013-07-30 22:02:00,
2013-07-30 18:12:00,85.0,78.0,30.06,ENE,59,0.0,3.0,80,0.00,,,0.00,,2013-07-30 22:12:00,
2013-07-30 18:22:00,85.0,78.0,30.06,ENE,59,0.0,3.0,80,0.00,,,0.00,,2013-07-30 22:22:00,
2013-07-30 18:32:00,85.0,78.0,30.06,ENE,59,0.0,3.0,80,0.00,,,0.00,,2013-07-30 22:32:00,
2013-07-30 18:43:00,82.0,74.0,30.10,ESE,117,5.0,11.0,78,0.00,,,0.00,,2013-07-30 22:43:00,
2013-07-30 18:52:00,80.0,74.0,30.09,SSW,200,3.0,4.0,82,0.00,,,0.00,,2013-07-30 22:52:00,
2013-07-30 19:02:00,80.0,74.0,30.09,SSW,200,3.0,4.0,82,0.00,,,0.00,,2013-07-30 23:02:00,
2013-07-30 19:13:00,79.0,74.0,30.06,NE,43,0.0,5.0,84,0.00,,,0.00,,2013-07-30 23:13:00,
2013-07-30 19:22:00,78.0,73.0,30.05,NE,43,0.0,0.0,84,0.00,,,0.00,,2013-07-30 23:22:00,
2013-07-30 19:32:00,78.0,73.0,30.05,NE,43,0.0,0.0,84,0.00,,,0.00,,2013-07-30 23:32:00,
2013-07-30 19:42:00,78.0,73.0,30.06,NE,43,0.0,1.0,86,0.00,,,0.00,,2013-07-30 23:42:00,
2013-07-30 19:53:00,79.0,74.0,30.06,NE,43,0.0,0.0,85,0.00,,,0.00,,2013-07-30 23:53:00,
2013-07-30 20:02:00,79.0,74.0,30.06,NE,43,0.0,0.0,85,0.00,,,0.00,,2013-07-31 00:02:00,
2013-07-30 20:12:00,79.0,74.0,30.07,NE,43,0.0,1.0,85,0.00,,,0.00,,2013-07-31 00:12:00,
2013-07-30 20:22:00,79.0,74.0,30.07,NE,43,0.0,1.0,85,0.00,,,0.00,,2013-07-31 00:22:00,
2013-07-30 20:32:00,79.0,74.0,30.07,NE,43,0.0,0.0,85,0.00,,,0.00,,2013-07-31 00:32:00,
2013-07-30 20:43:00,79.0,74.0,30.07,NE,43,0.0,0.0,85,0.00,,,0.00,,2013-07-31 00:43:00,
2013-07-30 20:53:00,78.0,73.0,30.07,NE,43,0.0,0.0,86,0.00,,,0.00,,2013-07-31 00:53:00,
2013-07-30 21:02:00,78.0,74.0,30.08,NE,43,0.0,0.0,87,0.00,,,0.00,,2013-07-31 01:02:00,
2013-07-30 21:12:00,78.0,74.0,30.08,NE,43,0.0,0.0,87,0.00,,,0.00,,2013-07-31 01:12:00,
2013-07-30 21:22:00,77.0,73.0,30.08,NE,43,0.0,0.0,87,0.00,,,0.00,,2013-07-31 01:22:00,
2013-07-30 21:32:00,77.0,73.0,30.08,NE,43,0.0,0.0,87,0.00,,,0.00,,2013-07-31 01:32:00,
2013-07-30 21:52:00,77.0,73.0,30.10,NE,43,0.0,0.0,87,0.00,,,0.00,,2013-07-31 01:52:00,
2013-07-30 22:02:00,77.0,73.0,30.11,NE,43,0.0,0.0,87,0.00,,,0.00,,2013-07-31 02:02:00,
2013-07-30 22:12:00,77.0,73.0,30.11,NE,43,0.0,0.0,87,0.00,,,0.00,,2013-07-31 02:12:00,
2013-07-30 22:22:00,77.0,73.0,30.11,NE,43,0.0,0.0,87,0.00,,,0.00,,2013-07-31 02:22:00,
2013-07-30 22:32:00,77.0,73.0,30.11,NE,43,0.0,0.0,87,0.00,,,0.00,,2013-07-31 02:32:00,
2013-07-30 22:52:00,76.0,72.0,30.10,NE,43,0.0,0.0,87,0.00,,,0.00,,2013-07-31 02:52:00,
2013-07-30 23:02:00,76.0,72.0,30.10,NE,43,0.0,0.0,87,0.00,,,0.00,,2013-07-31 03:02:00,
2013-07-30 23:12:00,76.0,72.0,30.10,NE,43,0.0,0.0,87,0.00,,,0.00,,2013-07-31 03:12:00,
2013-07-30 23:52:00,75.0,71.0,30.10,NE,43,0.0,0.0,87,0.00,,,0.00,,2013-07-31 03:52:00,